Location: Unspecified
(0.0000°N, 0.0000°E)
Time: 16:51:30
(UTC+00:00)

Vanguard 3 - Pass Details

Date: 02 February 2023
Orbit: 509 x 3249 km, 33.3° (Epoch: 20 March)

Event Time Altitude Azimuth Distance (km) Brightness Sun altitude
Rises 20:31:05 0° 319° (NW) 5,066 11.5 -32.7°
Reaches altitude 10° 20:38:16 10° 349° (N) 4,804 11.0 -34.4°
Maximum altitude 20:42:31 12° 7° (N) 5,029 10.9 -35.4°
Enters shadow 20:42:35 12° 8° (N) 5,034 10.9 -35.4°
Drops below altitude 10° 20:47:19 10° 25° (NNE) 5,525 - -36.5°
Sets 20:57:59 0° 53° (NE) 7,069 - -39.0°
